This demonstration page uses our WeatherBlox Daily Observations layout. Learn more.

Left ArrowRight Arrow

39.92423, -83.80882

Hourly Observations for August 25, 2022

Temp ( °F °C ) Dew Point ( °F °C ) Humidity (%) Winds ( mph kmh ) Pressure ( in mb ) Visibility ( mi km ) Precip ( " mm )
12:56 am 00:56 Clear N/A N/A N/A Calm 30.15 1021 10 16 0.00 0.00
1:56 am 01:56 Clear N/A N/A N/A Calm 30.15 1021 10 16 0.00 0.00
2:56 am 02:56 Clear N/A N/A N/A Calm 30.14 1021 10 16 0.00 0.00
3:56 am 03:56 Clear N/A N/A N/A ESE 3 6 30.13 1020 10 16 0.00 0.00
4:56 am 04:56 Clear N/A N/A N/A ESE 3 6 30.13 1020 10 16 0.00 0.00
5:39 am 05:39 Mostly Clear N/A N/A N/A ESE 3 6 30.12 1020 7 11 0.00 0.00
5:56 am 05:56 Clear N/A N/A N/A ESE 3 6 30.12 1020 10 16 0.00 0.00
6:56 am 06:56 Clear N/A N/A N/A Calm 30.13 1020 9 14 0.00 0.00
7:56 am 07:56 Sunny N/A N/A N/A Calm 30.15 1021 10 16 0.00 0.00
8:56 am 08:56 Sunny 66 18.9 N/A N/A Calm 30.10 1019 10 16 0.00 0.00
9:56 am 09:56 Sunny 73 22.8 66 18.9 79 79 SW 3 6 30.09 1019 10 16 0.00 0.00
10:56 am 10:56 Sunny 77 25 63 17.2 62 62 SSW 5 7 30.09 1019 10 16 0.00 0.00
11:56 am 11:56 Mostly Sunny 80 26.7 63 17.2 56 56 SSW 6 9 30.05 1018 10 16 0.00 0.00
12:56 pm 12:56 Mostly Sunny 81 27.2 61 16.1 51 51 SSW 5 7 30.03 1017 10 16 0.00 0.00
1:56 pm 13:56 Mostly Cloudy 80 26.7 62 16.7 54 54 SW 5 7 30.03 1017 10 16 0.00 0.00
2:56 pm 14:56 Partly Cloudy 83 28.3 62 16.7 49 49 SW 8 13 29.99 1016 10 16 0.00 0.00
3:56 pm 15:56 Partly Cloudy 80 26.7 60 15.6 51 51 WSW 5 7 29.99 1016 10 16 0.00 0.00
4:56 pm 16:56 Mostly Cloudy 80 26.7 61 16.1 52 52 W 5 7 29.98 1015 10 16 0.00 0.00
5:56 pm 17:56 Partly Cloudy 80 26.7 61 16.1 52 52 W 5 7 29.97 1015 10 16 0.00 0.00
6:56 pm 18:56 Mostly Cloudy 80 26.7 62 16.7 54 54 NW 5 7 29.97 1015 10 16 0.00 0.00
7:56 pm 19:56 Partly Cloudy 74 23.3 66 18.9 76 76 Calm 29.97 1015 10 16 0.00 0.00
8:56 pm 20:56 Cloudy 71 21.7 68 20 90 90 Calm 30.01 1016 10 16 0.00 0.00
9:56 pm 21:56 Cloudy 70 21.1 70 21.1 100 100 Calm 30.02 1017 10 16 0.00 0.00
10:56 pm 22:56 Cloudy 70 21.1 69 20.6 97 97 Calm 30.02 1017 10 16 0.00 0.00
11:56 pm 23:56 Cloudy 69 20.6 67 19.4 93 93 SW 3 6 30.02 1017 10 16 0.00 0.00

Powered by AerisWeather